+ View the NASA Portal
+ Center for Near-Earth Object Studies
IMPORTANT:
The SSD Announcement email list is now available. Major changes are coming in the near future, including possible hostname and/or URL changes. To be notified of such changes, subscribe to this email list.
Please visit
this page
for more details.
Don't show this message again
JPL Small-Body Database Browser
Search:
[
help
]
277278 (2005 SV68)
Classification:
Main-belt Asteroid
SPK-ID:
2277278
[
Ephemeris
|
Orbit Diagram
|
Orbital Elements
|
Mission Design
|
Physical Parameters
|
Discovery Circumstances
|
Close-Approach Data
]
[ show orbit diagram ]
Orbital Elements at Epoch 2458600.5 (2019-Apr-27.0) TDB
Reference:
JPL 15
(heliocentric ecliptic J2000)
Element
Value
Uncertainty (1-sigma)
Units
e
.2332891071488974
3.6983e-08
a
2.184999220771578
1.2816e-08
au
q
1.67526270343674
7.9775e-08
au
i
7.230816084239782
7.2567e-06
deg
node
191.7423729293778
3.8468e-05
deg
peri
104.2742737814355
4.3553e-05
deg
M
124.8624223877683
2.473e-05
deg
t
p
2458191.329220063186
(2018-Mar-13.82922006)
7.8821e-05
TDB
period
1179.710259983574
3.23
1.0379e-05
2.842e-08
d
yr
n
.3051596753977646
2.6848e-09
deg/d
Q
2.694735738106416
1.5805e-08
au
Orbit Determination Parameters
# obs. used (total)
266
data-arc span
6485 days (17.75 yr)
first obs. used
2001-03-31
last obs. used
2019-01-01
planetary ephem.
DE431
SB-pert. ephem.
SB431-N16
condition code
0
norm. resid. RMS
.58868
source
ORB
producer
Otto Matic
solution date
2019-Jul-14 04:44:16
Additional Information
Earth MOID
= .677583 au
Jupiter MOID
= 2.55339 au
T_jup
= 3.632
[ show covariance matrix ]
[
Ephemeris
|
Orbit Diagram
|
Orbital Elements
|
Mission Design
|
Physical Parameters
|
Discovery Circumstances
|
Close-Approach Data
]
Physical Parameter Table
Parameter
Symbol
Value
Units
Sigma
Reference
Notes
absolute magnitude
H
17.3
n/a
MPO455058
277278 (2005 SV68)
Discovered 2005-Sep-27 by Spacewatch at Kitt Peak
Reference:
20110517/Numbers.arc
Last Updated:
2011-05-20
[ show close-approach data ]
[
Ephemeris
|
Orbit Diagram
|
Orbital Elements
|
Mission Design
|
Physical Parameters
|
Discovery Circumstances
|
Close-Approach Data
]
2019-Dec-10 19:54 UT
(server date/time)
Site Manager:
Ryan S. Park
Webmaster
:
Alan B. Chamberlin